Hourly Weather Kozow

Today, 24 October, Saturday

Time Temperature Precipitation Wind Pressure Humidity
00:00 +15°C° 0.2 mm 2 mps 752 mmHg 94%
01:00 +14°C° 0.2 mm 1 mps 753 mmHg 95%
02:00 +14°C° 0.3 mm 2 mps 753 mmHg 95%
03:00 +13°C° 0.3 mm 2 mps 753 mmHg 96%
04:00 +13°C° 0.3 mm 2 mps 753 mmHg 96%
05:00 +13°C° 0 mm 2 mps 754 mmHg 96%
06:00 +12°C° 0 mm 2 mps 754 mmHg 96%
07:00 +11°C° 0 mm 3 mps 754 mmHg 96%
08:00 +12°C° 0 mm 3 mps 754 mmHg 91%
09:00 +13°C° 0 mm 3 mps 755 mmHg 86%
10:00 +14°C° 0 mm 4 mps 755 mmHg 81%
11:00 +15°C° 0 mm 4 mps 755 mmHg 76%
12:00 +17°C° 0 mm 4 mps 755 mmHg 71%
13:00 +17°C° 0 mm 5 mps 755 mmHg 66%
14:00 +17°C° 0 mm 4 mps 755 mmHg 68%
15:00 +17°C° 0 mm 4 mps 755 mmHg 71%
16:00 +16°C° 0 mm 3 mps 755 mmHg 73%
17:00 +14°C° 0 mm 3 mps 755 mmHg 77%
18:00 +13°C° 0 mm 3 mps 756 mmHg 82%
19:00 +13°C° 0 mm 2 mps 756 mmHg 86%
20:00 +12°C° 0 mm 2 mps 756 mmHg 87%
21:00 +12°C° 0 mm 2 mps 756 mmHg 89%
22:00 +10°C° 0 mm 2 mps 756 mmHg 90%
23:00 +10°C° 0 mm 2 mps 756 mmHg 90%

Tomorrow, 25 October, Sunday

Time Temperature Precipitation Wind Pressure Humidity
00:00 +10°C° 0 mm 3 mps 756 mmHg 90%
01:00 +10°C° 0 mm 3 mps 756 mmHg 90%
02:00 +10°C° 0 mm 3 mps 755 mmHg 89%
03:00 +9°C° 0 mm 3 mps 755 mmHg 89%
04:00 +9°C° 0 mm 3 mps 754 mmHg 88%
05:00 +9°C° 0 mm 3 mps 754 mmHg 89%
06:00 +9°C° 0 mm 3 mps 754 mmHg 89%
07:00 +9°C° 0 mm 3 mps 754 mmHg 89%
08:00 +11°C° 0 mm 3 mps 754 mmHg 83%
09:00 +13°C° 0 mm 4 mps 754 mmHg 77%
10:00 +14°C° 0 mm 4 mps 754 mmHg 71%
11:00 +17°C° 0 mm 4 mps 753 mmHg 67%
12:00 +18°C° 0 mm 4 mps 753 mmHg 62%
13:00 +19°C° 0 mm 4 mps 753 mmHg 58%
14:00 +18°C° 0 mm 4 mps 752 mmHg 61%
15:00 +17°C° 0 mm 3 mps 751 mmHg 65%
16:00 +17°C° 0 mm 3 mps 751 mmHg 68%
17:00 +16°C° 0 mm 3 mps 751 mmHg 71%
18:00 +13°C° 0 mm 3 mps 751 mmHg 75%
19:00 +12°C° 0 mm 3 mps 751 mmHg 78%
20:00 +12°C° 0 mm 3 mps 751 mmHg 79%
21:00 +12°C° 0 mm 3 mps 751 mmHg 79%
22:00 +12°C° 0 mm 3 mps 750 mmHg 79%
23:00 +12°C° 0 mm 3 mps 750 mmHg 83%

Day after tomorrow, 26 October, Monday

Time Temperature Precipitation Wind Pressure Humidity
00:00 +11°C° 0 mm 3 mps 750 mmHg 87%
01:00 +12°C° 0 mm 2 mps 750 mmHg 91%
02:00 +12°C° 0 mm 2 mps 750 mmHg 92%
03:00 +10°C° 0 mm 2 mps 750 mmHg 93%
04:00 +10°C° 0 mm 2 mps 749 mmHg 94%
05:00 +10°C° 0 mm 2 mps 749 mmHg 94%
06:00 +10°C° 0 mm 2 mps 749 mmHg 94%
07:00 +9°C° 0 mm 2 mps 749 mmHg 94%
08:00 +12°C° 0 mm 2 mps 749 mmHg 89%
09:00 +13°C° 0 mm 2 mps 749 mmHg 84%
10:00 +14°C° 0 mm 2 mps 749 mmHg 79%
11:00 +14°C° 0.1 mm 2 mps 749 mmHg 80%
12:00 +14°C° 0.1 mm 2 mps 749 mmHg 81%
13:00 +14°C° 0.1 mm 2 mps 749 mmHg 82%
14:00 +13°C° 0.2 mm 2 mps 749 mmHg 85%
15:00 +12°C° 0.2 mm 2 mps 749 mmHg 88%
16:00 +12°C° 0.2 mm 2 mps 749 mmHg 91%
17:00 +12°C° 0.1 mm 2 mps 749 mmHg 92%
18:00 +10°C° 0.1 mm 2 mps 750 mmHg 93%
19:00 +11°C° 0.1 mm 1 mps 750 mmHg 93%
20:00 +11°C° 0 mm 1 mps 750 mmHg 93%
21:00 +11°C° 0 mm 1 mps 750 mmHg 93%
22:00 +10°C° 0 mm 1 mps 750 mmHg 93%
23:00 +10°C° 0 mm 1 mps 750 mmHg 92%

, 27 October, Tuesday

Time Temperature Precipitation Wind Pressure Humidity
00:00 +10°C° 0 mm 1 mps 751 mmHg 91%
01:00 +10°C° 0 mm 1 mps 751 mmHg 89%
02:00 +10°C° 0.1 mm 1 mps 751 mmHg 89%
03:00 +10°C° 0.1 mm 1 mps 751 mmHg 89%
04:00 +10°C° 0.1 mm 1 mps 751 mmHg 90%
05:00 +10°C° 0.2 mm 1 mps 751 mmHg 90%
06:00 +10°C° 0.2 mm 1 mps 751 mmHg 91%
07:00 +10°C° 0.2 mm 1 mps 751 mmHg 92%
08:00 +10°C° 0.2 mm 1 mps 751 mmHg 91%
09:00 +11°C° 0.2 mm 1 mps 751 mmHg 90%
10:00 +11°C° 0.2 mm 1 mps 751 mmHg 89%
11:00 +11°C° 0.3 mm 1 mps 751 mmHg 88%
12:00 +10°C° 0.3 mm 2 mps 751 mmHg 88%
13:00 +10°C° 0.3 mm 2 mps 751 mmHg 88%
14:00 +10°C° 0.2 mm 2 mps 752 mmHg 87%
15:00 +10°C° 0.2 mm 2 mps 752 mmHg 86%
16:00 +10°C° 0.2 mm 2 mps 752 mmHg 86%
17:00 +10°C° 0 mm 2 mps 752 mmHg 86%
18:00 +9°C° 0 mm 2 mps 752 mmHg 87%
19:00 +9°C° 0 mm 2 mps 753 mmHg 87%
20:00 +9°C° 0 mm 2 mps 753 mmHg 88%
21:00 +8°C° 0 mm 3 mps 753 mmHg 88%
22:00 +8°C° 0 mm 3 mps 753 mmHg 88%
23:00 +8°C° 0 mm 3 mps 753 mmHg 89%

27 October, Tuesday

Time Temperature Precipitation Wind Pressure Humidity
00:00 +10°C° 0 mm 1 mps 751 mmHg 91%
01:00 +10°C° 0 mm 1 mps 751 mmHg 89%
02:00 +10°C° 0.1 mm 1 mps 751 mmHg 89%
03:00 +10°C° 0.1 mm 1 mps 751 mmHg 89%
04:00 +10°C° 0.1 mm 1 mps 751 mmHg 90%
05:00 +10°C° 0.2 mm 1 mps 751 mmHg 90%
06:00 +10°C° 0.2 mm 1 mps 751 mmHg 91%
07:00 +10°C° 0.2 mm 1 mps 751 mmHg 92%
08:00 +10°C° 0.2 mm 1 mps 751 mmHg 91%
09:00 +11°C° 0.2 mm 1 mps 751 mmHg 90%
10:00 +11°C° 0.2 mm 1 mps 751 mmHg 89%
11:00 +11°C° 0.3 mm 1 mps 751 mmHg 88%
12:00 +10°C° 0.3 mm 2 mps 751 mmHg 88%
13:00 +10°C° 0.3 mm 2 mps 751 mmHg 88%
14:00 +10°C° 0.2 mm 2 mps 752 mmHg 87%
15:00 +10°C° 0.2 mm 2 mps 752 mmHg 86%
16:00 +10°C° 0.2 mm 2 mps 752 mmHg 86%
17:00 +10°C° 0 mm 2 mps 752 mmHg 86%
18:00 +9°C° 0 mm 2 mps 752 mmHg 87%
19:00 +9°C° 0 mm 2 mps 753 mmHg 87%
20:00 +9°C° 0 mm 2 mps 753 mmHg 88%
21:00 +8°C° 0 mm 3 mps 753 mmHg 88%
22:00 +8°C° 0 mm 3 mps 753 mmHg 88%
23:00 +8°C° 0 mm 3 mps 753 mmHg 89%

28 October, Wednesday

Time Temperature Precipitation Wind Pressure Humidity
00:00 +7°C° 0 mm 3 mps 753 mmHg 89%
01:00 +7°C° 0 mm 3 mps 753 mmHg 89%
02:00 +7°C° 0 mm 3 mps 753 mmHg 89%
03:00 +7°C° 0 mm 3 mps 753 mmHg 89%
04:00 +6°C° 0 mm 4 mps 753 mmHg 89%
05:00 +6°C° 0 mm 4 mps 753 mmHg 87%
06:00 +6°C° 0 mm 4 mps 753 mmHg 85%
07:00 +6°C° 0 mm 4 mps 753 mmHg 83%
08:00 +7°C° 0 mm 4 mps 753 mmHg 79%
09:00 +8°C° 0 mm 4 mps 753 mmHg 74%
10:00 +9°C° 0 mm 5 mps 753 mmHg 70%
11:00 +10°C° 0 mm 4 mps 753 mmHg 69%
12:00 +11°C° 0 mm 4 mps 753 mmHg 68%
13:00 +11°C° 0 mm 4 mps 753 mmHg 67%
14:00 +11°C° 0 mm 4 mps 753 mmHg 69%
15:00 +11°C° 0 mm 4 mps 753 mmHg 70%
16:00 +11°C° 0 mm 4 mps 753 mmHg 72%
17:00 +10°C° 0 mm 4 mps 753 mmHg 74%
18:00 +10°C° 0 mm 4 mps 753 mmHg 76%
19:00 +8°C° 0 mm 4 mps 753 mmHg 78%
20:00 +8°C° 0 mm 4 mps 753 mmHg 79%
21:00 +8°C° 0 mm 4 mps 753 mmHg 79%
22:00 +8°C° 0 mm 4 mps 753 mmHg 79%
23:00 +8°C° 0 mm 4 mps 753 mmHg 79%

29 October, Thursday

Time Temperature Precipitation Wind Pressure Humidity
00:00 +10°C° 0 mm 4 mps 753 mmHg 78%
01:00 +10°C° 0 mm 4 mps 753 mmHg 78%
02:00 +10°C° 0 mm 4 mps 753 mmHg 77%
03:00 +10°C° 0 mm 4 mps 753 mmHg 77%
04:00 +10°C° 0 mm 4 mps 753 mmHg 76%
05:00 +10°C° 0.4 mm 4 mps 753 mmHg 79%
06:00 +9°C° 0.4 mm 5 mps 753 mmHg 81%
07:00 +9°C° 0.4 mm 5 mps 753 mmHg 84%
08:00 +10°C° 0.4 mm 6 mps 754 mmHg 79%
09:00 +11°C° 0.4 mm 6 mps 754 mmHg 74%
10:00 +11°C° 0.4 mm 7 mps 755 mmHg 69%
11:00 +12°C° 0.1 mm 7 mps 755 mmHg 67%
12:00 +12°C° 0.1 mm 7 mps 755 mmHg 65%
13:00 +13°C° 0.1 mm 6 mps 755 mmHg 63%
14:00 +13°C° 0 mm 5 mps 756 mmHg 66%
15:00 +12°C° 0 mm 4 mps 756 mmHg 69%
16:00 +11°C° 0 mm 3 mps 756 mmHg 71%
17:00 +11°C° 0 mm 3 mps 757 mmHg 74%
18:00 +10°C° 0 mm 3 mps 757 mmHg 77%
19:00 +9°C° 0 mm 3 mps 757 mmHg 80%
20:00 +9°C° 0 mm 3 mps 757 mmHg 80%
21:00 +10°C° 0 mm 4 mps 757 mmHg 79%
22:00 +10°C° 0 mm 4 mps 758 mmHg 79%
23:00 +10°C° 0 mm 4 mps 757 mmHg 79%
Show more